RH
17 16 15 15 15 15 15 14 13 13 13 13 13 13 13 12 12 12 11 11 11 11 11 12 11 11 11 9 10 10 10 12 12 15 15 12 11 10 10 10 9 9 9 10 9 13 18 17 16 15 11 13 17 23 21 20 35 41 40 43 48 54 55 53 42 27 30 33 33 30 36 52 49 35 31 33 40 54 64 67 68 65 60 57 53 49 51 60
16 15 15 15 14 14 14 13 13 13 13 13 14 13 14 14 13 12 10 10 10 10 10 11 11 11 10 9 10 9 13 16 14 15 13 11 11 11 11 10 10 9 9 9 10 16 23 25 24 19 14 15 19 20 22 21 26 41 51 47 42 51 54 46 32 21 19 22 30 33 36 44 41 38 36 38 43 53 70 75 73 68 56 44 41 45 53 57
16 15 15 14 14 14 14 14 13 13 13 13 13 13 13 13 13 12 10 10 9 10 10 10 10 10 9 8 9 10 15 19 17 18 14 10 12 12 11 10 11 9 9 10 10 14 20 25 25 21 14 14 21 20 22 23 24 43 50 41 45 51 47 35 21 16 16 19 30 31 31 34 34 36 36 39 42 49 64 72 79 74 57 46 42 43 46 50
16 15 15 14 14 14 13 13 13 13 12 12 12 12 13 12 12 11 11 10 9 10 9 10 9 8 10 8 10 12 15 21 20 17 13 11 12 12 11 11 11 10 10 10 11 14 17 22 22 18 12 17 30 23 21 26 23 33 38 39 50 47 37 29 16 16 17 21 31 30 30 32 31 34 36 39 41 44 45 50 72 74 59 53 47 43 42 45
16 15 15 14 13 13 12 12 12 12 11 11 12 11 13 12 12 12 11 11 10 9 9 9 9 8 9 7 12 15 17 27 22 13 12 13 13 13 12 12 12 12 11 11 12 14 14 18 17 16 14 16 26 19 21 27 21 27 31 32 40 35 27 24 19 18 18 22 32 34 33 32 32 37 39 42 45 47 42 45 64 65 55 53 48 46 45 45
15 14 14 13 12 12 12 12 11 11 10 10 11 12 13 12 11 12 12 12 11 10 8 9 9 8 9 9 16 21 20 25 19 11 13 14 13 13 13 13 14 12 12 12 11 12 12 14 14 16 17 16 18 14 18 21 15 22 27 25 28 26 19 18 20 20 21 24 30 35 33 33 36 41 43 46 51 50 46 48 53 51 48 46 46 47 47 49
14 13 12 12 12 12 11 11 10 9 10 11 12 11 11 9 9 9 10 12 11 11 9 8 9 8 10 12 21 30 25 19 13 12 14 14 14 14 13 14 14 13 12 11 12 13 14 14 14 16 16 17 19 16 19 21 17 19 24 25 22 20 18 17 21 23 26 27 29 32 31 34 39 41 43 47 50 48 46 47 46 46 46 45 47 48 48 49
13 12 12 12 12 11 10 9 9 10 11 11 10 9 8 9 10 10 10 10 10 11 10 9 9 9 13 16 26 33 22 13 13 14 15 14 15 15 14 14 14 13 12 12 14 14 14 15 15 17 19 20 21 22 24 26 28 23 23 27 20 18 20 20 23 26 30 30 30 33 35 39 39 40 46 50 49 45 43 43 44 44 44 45 46 46 45 45
13 12 12 12 11 9 8 8 8 10 11 9 7 7 9 11 12 12 10 8 8 9 10 9 9 10 14 20 33 34 17 11 15 15 14 15 15 15 14 14 14 13 12 13 14 12 14 15 15 16 18 20 19 23 27 25 29 28 25 27 21 18 19 19 22 25 29 31 30 34 40 40 37 42 50 52 48 42 40 39 40 40 40 43 42 42 42 41
12 12 11 11 9 8 8 8 8 10 10 7 7 9 12 13 12 11 9 7 7 8 10 9 9 13 15 22 36 30 14 13 16 14 15 15 14 14 14 14 15 14 12 13 13 14 15 14 16 16 15 19 20 24 30 25 27 32 30 28 25 23 20 17 19 23 27 28 29 34 38 37 36 47 54 52 46 39 38 38 37 38 38 38 38 39 39 39
12 12 11 10 9 8 8 7 8 9 8 6 7 11 12 11 10 10 10 8 7 9 10 9 10 14 15 21 29 21 11 15 16 15 15 14 14 14 15 14 15 13 13 14 13 15 16 14 17 17 15 17 21 29 31 28 28 29 26 27 36 33 20 20 19 19 25 24 28 32 37 42 43 53 58 50 44 38 38 39 36 36 36 35 35 36 37 38
12 11 10 10 9 8 8 8 8 8 7 7 7 11 12 10 11 12 11 10 9 9 9 9 12 15 17 20 20 14 13 15 15 16 14 15 15 14 16 15 15 14 14 15 14 15 15 16 16 16 18 19 24 27 24 29 28 24 25 25 41 47 30 26 23 18 22 25 29 26 30 50 57 57 56 47 41 38 38 39 37 35 35 33 33 33 35 36
12 11 10 10 9 8 8 8 7 8 7 6 8 12 12 13 15 13 13 12 10 9 10 12 14 18 23 22 16 12 14 14 15 16 14 15 14 13 16 16 15 15 15 15 15 15 14 16 15 17 23 24 27 23 23 35 25 20 31 27 35 52 44 29 21 20 20 23 28 20 28 54 61 55 50 45 40 38 40 40 38 37 35 34 34 33 34 35
11 10 10 9 9 9 8 8 8 7 7 7 9 12 13 16 17 13 14 14 12 13 14 15 18 21 24 19 13 13 15 14 15 15 14 15 14 13 15 16 16 15 16 16 14 15 16 16 16 20 25 25 25 20 33 54 41 26 35 47 44 38 49 43 25 22 16 22 34 30 45 61 57 53 49 43 40 40 43 41 39 38 37 36 34 34 34 33
11 11 10 9 10 9 8 8 8 7 8 7 9 13 16 19 18 13 14 15 15 18 18 20 21 26 27 17 11 13 14 14 14 15 15 15 15 16 16 16 16 15 15 15 14 15 16 16 18 24 26 30 38 35 45 65 66 49 34 55 63 41 56 56 28 29 21 23 37 36 53 62 53 54 49 43 41 40 43 42 41 40 37 37 35 35 35 35
11 11 10 10 9 9 9 8 7 8 8 8 11 15 16 19 19 14 15 17 20 22 23 25 22 26 29 17 12 14 14 15 15 15 15 16 17 18 18 17 15 15 16 15 14 14 14 18 23 29 33 38 51 54 56 67 79 77 48 43 54 43 52 48 30 43 36 27 36 37 50 58 54 55 47 43 41 41 44 43 42 41 39 38 37 37 37 37
12 11 10 9 9 9 9 8 8 8 8 9 12 15 17 21 20 15 17 18 18 18 17 19 18 23 25 17 14 17 17 16 16 15 15 17 18 17 18 19 17 16 16 14 15 15 14 20 24 33 45 49 57 58 54 62 71 80 69 50 52 50 47 46 40 46 45 42 43 44 54 58 56 54 48 44 41 42 45 44 43 42 41 41 39 40 39 40
12 12 11 9 9 9 8 8 8 8 8 9 13 17 17 19 19 17 19 18 17 20 18 17 20 24 23 18 18 19 18 17 16 16 16 18 17 17 20 20 20 18 21 22 18 17 19 32 41 43 50 50 57 60 47 53 58 55 63 58 58 63 55 53 52 48 51 54 50 50 60 63 59 54 50 45 42 44 45 44 44 43 43 43 42 42 42 43
11 11 10 9 9 9 9 8 7 9 7 9 19 21 15 20 25 20 17 18 22 26 23 24 28 26 21 19 19 18 17 16 16 16 17 20 17 18 20 19 23 23 32 40 28 26 37 49 54 50 50 47 52 56 42 48 56 46 56 58 54 63 64 61 58 52 52 54 56 58 62 65 61 55 53 48 44 45 46 45 45 45 45 44 44 46 44 45
10 10 9 9 9 8 8 8 8 10 6 11 25 23 17 32 37 27 27 31 34 31 26 30 30 24 21 20 19 18 17 15 15 19 19 20 18 20 23 29 40 38 43 51 36 39 54 54 51 48 52 52 53 59 51 51 58 51 54 61 60 63 65 62 53 50 57 63 64 62 63 66 62 58 54 50 47 47 47 48 48 47 47 47 49 50 49 50
9 9 9 9 8 8 8 9 9 8 10 17 26 27 33 47 39 26 34 38 36 35 31 29 26 20 19 19 18 19 20 17 17 21 19 19 21 23 30 42 49 40 46 61 50 47 52 46 46 47 51 56 59 65 57 48 53 55 53 56 62 64 61 59 54 53 63 69 64 61 69 73 68 63 56 51 50 50 49 49 50 50 51 53 54 55 55 56
9 8 9 8 7 9 8 11 10 9 15 18 22 36 49 54 42 28 34 36 32 34 32 27 22 20 19 17 19 21 22 24 23 22 19 20 24 28 38 47 45 37 52 72 66 59 53 44 43 44 53 63 61 60 53 45 53 60 58 56 59 61 60 58 59 60 61 66 65 64 73 78 73 69 61 56 54 52 51 49 50 52 54 56 56 58 59 58
8 8 9 8 8 9 10 13 12 10 12 11 20 39 43 40 39 32 33 37 34 31 32 30 25 23 23 20 20 21 23 27 28 25 22 23 27 37 50 53 51 48 57 64 55 52 50 42 46 55 63 64 55 53 49 46 51 53 55 57 56 57 53 47 54 63 64 65 65 67 76 78 73 72 68 63 61 58 56 54 52 52 53 55 55 57 57 56
10 11 9 10 9 10 14 15 16 15 12 12 21 32 32 30 31 32 39 45 39 32 31 29 25 23 24 23 21 24 26 25 29 26 21 26 32 41 47 49 57 58 58 62 51 46 44 39 54 69 70 63 53 53 50 43 44 53 64 60 48 47 44 42 54 61 62 64 62 64 73 76 74 76 73 67 64 62 60 60 58 55 55 57 57 56 56 56
12 11 9 11 9 12 18 18 25 27 18 17 21 26 30 27 26 31 43 50 38 30 32 27 24 23 20 23 24 26 28 24 24 25 21 26 33 41 42 42 53 54 54 62 53 47 47 46 60 65 60 59 53 49 48 46 45 50 62 56 42 43 44 52 58 50 54 64 60 58 65 76 84 83 77 71 67 65 62 62 63 61 61 60 59 57 56 57
12 12 11 10 8 16 22 23 34 39 29 21 21 27 29 26 28 29 46 65 46 28 32 26 21 22 20 26 31 31 34 28 22 21 23 24 27 38 46 47 52 48 47 53 48 45 47 52 63 56 48 51 47 44 44 49 50 42 45 52 51 53 53 58 55 45 55 61 54 56 59 72 88 84 79 77 73 70 66 65 65 62 61 60 56 54 53 54
12 13 12 10 11 16 19 25 35 40 37 27 22 26 24 27 33 30 47 69 48 25 33 32 21 20 22 27 31 32 31 29 26 24 24 24 27 35 44 51 55 50 54 61 51 44 46 53 58 48 44 46 40 40 42 45 45 37 43 56 56 54 56 58 53 52 61 59 57 60 53 65 84 82 80 81 78 77 71 68 67 61 58 57 53 51 51 51
12 14 13 12 14 15 15 24 31 29 27 26 25 25 25 29 32 39 52 47 29 25 32 33 22 18 28 31 30 35 33 31 33 30 25 22 26 36 39 43 50 50 57 64 51 42 46 50 51 46 43 42 36 36 44 46 45 47 54 58 56 56 60 62 61 62 62 57 65 67 55 66 82 79 81 82 80 82 76 68 66 60 57 56 52 52 52 50
11 14 15 14 17 20 17 19 23 20 22 26 27 25 27 28 32 55 63 34 22 34 31 28 23 24 44 47 40 45 40 36 39 36 31 26 24 35 36 33 48 53 48 54 52 43 47 51 54 52 42 40 40 42 51 48 43 54 58 53 60 69 71 69 66 68 70 65 64 62 59 70 79 82 88 86 79 78 74 68 64 60 57 56 54 53 52 51
10 15 17 14 15 20 23 26 23 17 24 29 25 27 28 35 57 68 48 22 27 39 35 30 28 37 57 53 42 47 43 42 50 47 42 36 29 35 38 39 55 59 48 54 56 48 58 63 57 51 43 42 45 48 59 57 46 54 59 54 58 66 72 79 77 72 74 73 63 53 54 63 72 82 85 80 75 72 72 71 67 62 60 59 56 54 53 53
11 17 20 17 16 16 25 38 32 19 28 28 25 37 31 36 73 67 25 18 33 41 43 42 43 53 62 52 38 43 51 52 57 56 50 48 43 40 43 47 55 57 52 54 54 53 65 63 49 51 53 49 45 43 53 62 56 52 54 51 49 54 65 81 87 76 69 71 63 49 45 52 67 78 74 70 71 72 74 74 68 65 63 61 58 56 56 55
12 19 22 20 20 18 20 29 27 22 28 27 35 58 48 34 49 45 30 33 31 34 41 44 54 60 62 63 48 42 52 52 53 59 55 56 57 54 53 54 52 48 46 51 54 56 60 56 50 53 52 43 43 44 44 53 54 48 51 57 63 72 75 79 84 77 69 66 55 46 43 47 62 73 71 70 72 72 74 72 67 64 61 61 62 60 60 60
14 22 23 22 22 22 22 23 23 25 30 33 43 63 63 45 29 28 45 44 26 36 47 47 63 67 61 63 51 44 51 46 47 54 55 59 63 63 62 61 57 45 38 48 56 57 58 58 53 48 43 41 45 49 45 46 48 47 53 61 72 85 84 83 85 76 72 64 47 44 47 52 67 73 71 72 70 70 76 76 69 62 60 61 62 63 64 64
18 25 24 24 24 22 25 27 28 32 35 39 51 58 52 39 29 30 50 53 41 51 57 54 64 63 54 52 47 47 47 41 46 51 55 65 66 67 67 62 61 55 51 56 56 58 58 51 46 42 40 42 43 43 43 46 52 56 55 55 64 72 73 81 84 75 76 71 57 53 48 57 78 74 67 72 71 73 81 81 72 64 62 63 63 66 66 66
21 28 27 28 29 26 28 29 33 41 38 32 48 62 46 30 34 39 46 60 63 58 56 60 64 57 53 57 55 50 37 35 53 61 62 68 68 70 69 59 58 61 63 59 51 57 54 40 46 54 43 37 37 41 48 49 51 57 57 55 56 55 62 79 79 70 75 75 76 78 65 67 79 70 66 71 68 70 74 75 73 69 69 70 69 69 68 67
24 30 29 29 33 32 33 33 36 45 40 29 38 56 51 37 41 48 50 55 59 60 61 60 60 57 54 59 61 54 40 35 50 61 63 67 68 68 67 60 57 60 66 63 55 58 53 39 49 58 44 37 38 42 49 48 46 50 49 44 42 45 57 66 60 65 78 72 70 76 73 76 77 66 65 66 63 67 69 71 73 72 74 76 71 68 68 68
26 30 28 31 35 34 37 38 38 41 36 35 45 52 53 48 47 64 72 60 54 64 67 55 46 44 44 54 60 56 50 44 47 53 53 59 64 62 65 65 57 58 66 66 59 58 58 53 54 52 40 40 48 48 48 50 48 47 43 38 39 49 62 59 54 73 88 74 67 70 74 80 79 69 64 61 65 69 69 72 74 73 77 76 70 67 68 67
27 29 27 29 31 30 34 33 32 34 31 44 67 64 59 58 57 73 80 65 60 67 66 54 42 37 40 50 56 57 59 55 53 55 49 54 62 59 63 66 60 64 74 70 62 60 60 55 52 51 40 41 55 52 46 50 52 48 42 41 44 52 62 60 56 69 75 71 78 83 78 76 80 82 71 59 64 67 65 72 74 73 75 71 68 68 67 68
30 35 30 27 26 24 27 25 24 31 32 51 75 68 61 66 67 78 79 66 64 67 60 49 43 47 47 46 52 60 63 56 53 55 50 50 56 56 61 62 59 68 76 70 60 57 59 55 51 53 46 43 53 52 47 52 58 58 50 50 62 64 61 58 54 63 74 81 90 91 82 77 81 85 73 57 59 61 61 68 69 68 70 67 66 67 66 68
34 38 28 21 23 22 19 18 28 46 52 62 77 69 62 65 69 82 87 75 64 56 50 47 49 57 55 48 54 58 60 61 56 53 54 55 54 56 65 70 69 76 79 71 62 59 62 59 53 53 51 50 53 49 48 50 52 59 55 56 69 67 60 57 53 63 76 84 94 96 88 81 72 66 62 58 58 57 57 60 62 62 63 63 64 64 63 65
40 43 28 20 23 20 19 26 46 72 74 68 75 72 64 62 63 75 90 88 72 55 52 55 56 60 55 48 51 54 60 69 62 53 56 58 52 51 62 78 86 84 72 65 64 62 61 59 59 62 59 56 53 46 45 46 47 55 57 56 60 61 62 59 58 76 82 75 86 94 84 75 62 49 51 55 53 52 53 54 56 57 58 59 60 60 61 61
48 48 29 21 20 16 25 47 70 87 83 68 66 66 67 67 58 57 69 73 65 58 57 55 55 59 55 46 49 58 63 64 61 57 55 57 57 54 63 84 97 87 68 63 65 62 64 68 73 71 58 49 49 50 51 53 53 54 57 62 64 67 74 66 65 86 85 70 80 90 85 80 65 50 49 48 47 49 51 53 54 53 52 53 54 55 59 59
47 36 20 22 22 16 27 52 72 80 75 65 61 62 68 71 59 51 58 59 55 56 53 48 49 49 47 48 52 59 59 54 55 54 54 65 67 62 74 91 91 78 64 59 60 62 65 68 73 74 64 49 42 46 54 56 52 49 56 69 66 64 78 82 79 85 85 83 89 89 88 81 64 55 53 49 50 51 50 54 54 50 50 51 52 54 56 57
46 28 24 26 16 16 33 49 61 69 68 60 60 64 64 64 61 57 56 57 58 57 50 47 48 43 46 56 58 57 52 46 49 50 52 63 64 66 85 93 79 66 60 57 58 55 49 54 70 79 73 62 56 58 62 58 51 50 61 75 72 69 81 85 81 81 83 86 85 85 90 76 58 59 58 49 51 50 46 50 51 49 49 49 52 53 52 52
48 35 38 33 18 28 52 60 61 67 72 66 59 60 57 53 61 66 59 57 63 62 51 47 49 50 56 61 60 61 55 44 47 53 52 56 62 70 87 93 83 74 77 84 81 64 50 58 75 73 61 60 62 61 61 58 53 55 66 75 75 76 74 68 74 84 86 86 85 88 87 64 46 52 54 50 53 50 45 48 49 49 49 47 49 50 48 49
44 40 45 44 35 47 66 74 74 68 68 71 60 56 59 50 54 71 68 57 60 61 53 50 52 52 56 61 63 66 62 53 54 58 58 60 62 64 77 91 90 83 91 104 98 77 68 73 76 72 64 58 54 47 46 52 54 55 64 73 82 88 79 71 83 89 86 90 89 82 75 59 45 44 43 48 54 52 49 47 47 48 47 48 49 48 48 48
48 44 49 42 33 51 66 71 77 67 59 64 52 46 59 54 49 62 58 49 57 61 56 60 60 51 50 58 63 65 65 60 57 58 60 65 67 66 73 83 84 84 90 94 87 73 64 60 61 69 69 58 52 47 42 49 57 57 60 66 79 96 90 75 78 78 74 77 72 67 72 66 47 35 34 41 47 49 49 47 46 46 46 47 48 48 52 52
50 46 51 40 30 52 61 52 64 70 66 73 63 51 64 65 54 52 44 45 62 59 48 55 62 60 61 60 57 63 64 51 49 59 63 67 76 75 70 69 73 81 80 71 72 71 59 56 63 70 71 63 56 53 51 58 64 61 61 58 63 86 91 74 72 77 72 64 53 50 59 56 41 35 38 42 44 46 46 44 45 45 45 47 47 47 50 50
45 44 50 48 43 54 58 54 65 64 61 77 72 56 66 69 55 54 52 51 59 57 47 43 45 60 75 72 64 65 60 40 34 55 71 74 78 75 64 57 61 74 74 62 70 74 58 62 79 77 74 70 58 53 58 62 58 52 52 50 51 70 82 73 71 75 73 66 57 53 61 61 50 44 44 43 45 49 48 46 48 47 47 49 49 50 50 48
38 38 42 51 55 58 63 67 69 57 54 73 66 51 68 72 53 57 66 53 41 45 50 39 39 63 81 77 67 57 56 50 35 45 68 71 70 74 69 57 52 67 77 67 69 65 42 54 87 83 71 72 62 53 53 51 49 46 42 45 53 66 77 77 74 75 75 74 70 69 77 73 52 43 48 49 50 54 52 50 50 48 49 52 52 52 50 48
33 32 32 41 47 52 58 63 70 63 52 59 57 48 61 66 55 60 68 60 47 44 47 43 49 71 76 71 68 55 61 73 58 56 73 69 62 66 62 56 56 67 80 77 73 67 48 62 91 79 63 69 60 51 53 47 45 48 45 50 60 69 78 78 71 70 69 66 65 69 73 60 39 37 48 49 48 51 50 48 49 47 49 52 53 53 52 52
35 32 35 42 42 49 61 65 71 62 39 43 60 57 53 57 63 62 53 58 69 63 57 58 59 64 63 64 68 61 66 80 71 72 83 74 67 68 62 65 67 66 78 84 81 81 71 72 83 72 66 75 64 55 59 47 39 50 55 52 53 60 72 72 62 61 58 53 58 62 53 38 29 34 41 40 40 43 43 42 44 45 48 50 51 52 53 55
Wind_Speed
2 2 3 4 6 7 7 8 8 8 8 8 9 9 9 9 9 9 8 8 8 7 7 7 7 8 9 11 12 13 13 7 5 8 7 6 10 10 11 12 12 13 13 12 10 7 6 6 7 11 9 3 0 2 2 2 2 2 2 1 4 3 3 5 4 4 3 2 2 1 2 8 6 2 3 6 12 8 9 9 9 13 13 17 23 30 33 32
2 3 4 4 5 6 7 7 8 8 8 9 9 9 10 9 9 9 8 8 7 7 7 7 7 8 9 10 11 12 11 5 7 9 8 8 11 12 11 11 11 11 11 10 10 8 5 4 8 10 6 1 2 2 1 2 2 3 3 1 5 4 4 5 5 5 3 3 4 4 5 6 3 2 2 6 5 6 11 8 10 15 14 18 24 28 29 30
2 3 4 4 5 6 7 7 8 8 9 9 9 10 10 9 9 8 8 7 7 6 6 7 7 8 8 9 9 11 8 3 5 5 7 9 10 13 12 11 10 10 9 9 9 7 3 4 6 5 3 1 3 1 1 2 2 2 3 2 6 5 4 5 4 5 4 5 8 5 5 8 6 4 3 7 6 8 8 4 7 13 12 12 15 22 26 26
3 4 5 5 6 6 6 7 8 8 9 9 10 10 10 9 8 7 7 6 6 6 6 7 7 7 7 7 8 8 5 5 2 3 8 10 12 14 11 10 9 8 8 8 8 6 5 5 3 1 2 2 4 2 1 3 2 2 4 5 7 5 3 6 4 4 2 4 8 5 6 8 6 7 4 5 8 7 4 1 4 12 13 12 11 16 21 22
5 5 5 6 6 6 7 8 9 10 10 11 11 11 11 10 9 8 7 6 6 6 6 6 6 6 6 6 7 6 2 4 3 5 10 12 14 13 9 9 7 7 7 7 7 5 5 3 2 3 2 1 3 2 3 4 2 1 4 6 6 5 3 6 5 2 2 6 8 6 7 5 2 9 8 6 8 3 3 3 5 9 10 11 11 14 18 19
5 5 5 5 6 7 8 9 10 11 11 12 12 12 12 12 11 10 8 7 6 5 5 5 5 5 5 6 6 3 3 2 4 6 10 12 14 11 7 8 5 6 8 6 7 6 4 3 3 1 1 0 1 2 4 3 2 2 5 4 5 5 3 3 3 0 2 8 7 5 5 4 7 10 9 12 9 4 4 7 10 12 13 17 17 17 17 16
5 4 4 5 7 8 10 11 11 11 12 12 12 13 14 13 12 10 9 7 5 4 4 3 4 4 6 6 4 4 4 1 6 9 10 12 13 11 8 7 4 7 8 6 8 6 3 5 3 1 2 2 1 3 4 4 1 4 4 5 3 3 2 2 4 4 8 10 6 7 7 5 9 9 7 12 9 7 11 15 17 19 22 24 20 18 18 18
4 4 5 7 9 10 11 11 12 12 12 13 14 15 13 12 11 10 9 7 5 3 2 2 3 4 6 4 3 4 3 2 9 10 9 11 15 14 10 6 5 9 8 7 8 3 1 4 2 1 2 1 1 2 4 6 4 3 4 4 2 1 0 4 7 9 12 10 9 14 13 10 11 12 9 9 8 8 12 17 19 21 22 22 17 16 18 20
4 5 7 9 10 11 12 12 12 11 12 15 16 14 12 12 11 11 9 5 4 2 1 1 3 4 5 4 5 4 2 4 10 11 10 13 16 17 11 6 7 10 7 6 8 3 2 2 0 1 1 2 1 3 4 3 2 3 3 3 1 2 2 5 7 9 11 6 12 18 12 9 9 10 10 7 6 7 13 16 14 17 18 15 13 15 18 18
5 7 9 10 11 12 13 13 12 11 13 16 15 12 11 12 12 12 10 6 2 0 1 1 3 4 3 3 6 4 3 7 10 11 13 15 17 18 13 7 8 9 5 6 8 6 3 2 2 2 4 1 0 2 1 3 2 3 3 3 0 2 3 4 5 8 8 3 10 16 8 4 4 5 6 3 4 8 15 15 11 15 14 11 11 13 17 18
6 8 10 11 11 12 13 13 11 11 14 16 13 10 10 11 11 11 10 7 3 2 2 2 3 4 4 4 6 3 4 8 11 13 15 16 17 19 16 9 7 7 5 5 5 4 4 0 2 2 2 0 1 4 2 3 1 2 2 3 4 3 1 3 6 8 6 2 7 16 10 6 9 5 6 4 4 9 16 14 11 14 11 10 11 11 16 17
6 9 10 10 11 11 13 13 11 11 14 16 12 8 9 10 11 10 8 6 4 3 3 3 3 4 5 7 5 1 5 10 10 12 14 15 17 18 15 8 5 6 4 4 3 2 4 3 3 3 1 0 0 3 1 2 1 1 2 3 7 7 5 4 2 6 4 4 8 13 8 7 8 5 7 6 6 11 15 13 11 11 9 9 9 9 13 16
6 8 10 10 10 11 12 13 12 11 13 15 11 7 9 10 11 10 6 4 4 5 4 3 2 4 4 4 2 1 5 11 10 10 14 16 20 16 10 7 4 4 4 4 5 4 4 4 3 3 2 2 1 3 1 1 2 2 3 2 4 7 5 6 1 3 6 5 10 4 2 2 4 5 7 5 7 14 14 10 9 8 7 8 7 8 10 14
6 8 9 9 10 11 12 12 13 11 12 14 10 6 9 9 10 9 5 5 5 6 5 4 3 3 3 1 1 3 7 10 8 10 15 21 25 16 10 9 3 3 4 5 6 4 4 3 3 3 1 2 1 3 4 5 4 2 3 3 3 3 4 8 2 4 6 2 3 2 1 3 4 5 5 4 7 15 12 8 8 7 7 6 7 8 7 11
6 8 9 9 10 10 11 12 12 11 11 13 9 6 8 7 8 8 6 6 7 7 6 6 4 2 4 1 1 6 9 9 11 12 14 24 25 13 12 13 3 1 2 4 5 3 3 4 4 3 1 2 3 3 4 4 4 3 1 3 3 1 4 7 3 4 5 1 5 5 3 2 5 6 4 4 7 15 12 7 7 7 7 6 6 7 6 9
6 8 8 9 9 10 11 11 12 11 10 11 7 7 11 8 6 8 9 9 9 8 6 4 3 4 5 1 4 8 8 10 15 13 15 25 19 8 12 11 4 4 2 2 3 2 3 4 3 2 2 5 5 4 3 4 4 4 2 1 3 1 3 4 3 6 4 3 6 4 5 3 4 6 4 5 8 13 11 8 7 7 6 6 5 6 6 7
6 7 8 9 9 10 10 11 12 10 9 9 5 9 15 15 8 6 8 9 9 8 9 6 4 4 4 2 4 7 8 13 16 15 21 24 12 6 10 5 4 8 4 1 3 3 3 4 2 1 3 5 3 3 5 4 4 4 3 1 2 2 2 3 3 5 8 5 5 6 6 5 5 7 6 5 8 12 10 8 7 6 6 5 5 5 5 5
6 8 9 9 10 10 10 10 11 9 8 8 4 7 10 16 14 10 6 3 2 4 8 9 6 4 2 5 4 9 13 15 15 16 25 23 10 7 6 2 4 8 5 4 4 4 3 3 2 2 4 5 4 6 4 1 2 2 4 2 3 3 1 3 4 2 7 8 6 8 8 7 7 7 6 5 7 10 9 8 6 6 6 5 5 5 5 5
7 8 9 10 11 10 11 10 9 8 7 7 2 7 4 6 11 15 16 10 4 3 3 5 5 4 3 5 6 13 13 10 12 16 25 24 11 6 6 3 4 5 5 4 4 4 2 3 5 4 4 5 4 3 1 4 4 4 4 2 3 3 4 5 3 1 6 10 7 6 8 7 7 6 6 5 6 9 8 7 6 5 5 5 4 4 5 5
8 10 10 11 10 10 11 8 7 6 6 5 2 6 3 2 4 7 13 12 5 4 4 1 1 2 3 4 8 14 10 5 9 16 27 25 9 4 7 6 5 6 5 2 3 3 4 5 5 2 4 5 5 4 4 4 3 2 1 1 3 2 5 5 0 1 4 8 6 5 9 7 6 6 6 6 6 8 8 7 6 5 5 5 5 5 5 4
9 9 9 10 9 9 9 6 5 6 5 3 4 6 3 3 4 1 1 5 2 4 4 0 1 2 2 3 6 10 4 4 9 17 30 25 7 4 6 6 7 6 6 3 2 3 6 7 4 5 6 4 3 4 1 2 3 2 1 1 3 2 4 4 2 1 3 7 3 5 10 6 4 5 5 6 7 6 7 8 7 6 5 4 5 5 5 4
8 8 8 9 8 9 6 3 5 5 3 2 6 7 4 5 6 6 4 4 2 5 4 2 4 3 3 2 6 8 2 6 11 16 29 25 9 5 3 5 7 3 6 4 3 5 6 4 5 7 4 2 5 5 6 6 5 4 2 1 2 1 3 4 2 5 6 5 3 4 8 5 3 4 4 3 5 4 5 7 8 8 7 5 6 6 6 5
8 7 8 8 8 8 3 2 5 3 3 5 9 9 6 6 7 7 5 5 1 4 4 3 4 4 5 3 8 9 5 6 6 11 24 19 7 4 3 5 6 3 6 6 5 4 4 3 6 5 2 6 6 7 8 7 4 3 3 3 1 4 2 2 3 5 6 4 6 6 7 3 2 4 4 2 2 4 3 5 5 7 7 7 7 6 7 7
7 8 8 7 8 6 1 3 5 5 7 9 11 10 8 7 6 6 3 4 2 1 1 1 1 2 3 3 9 7 3 4 2 7 18 14 4 3 4 3 5 5 5 4 8 8 3 5 5 5 6 7 5 7 9 6 5 3 0 4 0 4 1 2 3 2 5 6 6 8 5 1 0 2 2 3 4 4 4 5 4 3 5 5 6 5 6 6
7 10 11 8 8 5 4 3 5 6 7 7 8 7 7 6 4 5 3 4 3 3 2 1 1 3 4 5 10 4 3 4 2 6 14 11 4 2 4 1 4 5 3 4 8 7 3 5 4 7 7 8 6 5 6 4 4 5 2 2 1 3 4 4 3 1 3 3 2 5 1 2 0 1 3 2 3 3 3 5 5 4 5 5 5 6 6 5
5 10 14 12 9 4 4 2 4 4 3 4 5 5 6 4 4 4 3 5 3 4 4 3 1 6 7 6 9 2 4 4 3 10 17 14 5 1 4 3 2 4 1 3 5 3 3 5 5 6 6 8 7 4 2 2 4 4 2 1 1 1 4 5 2 1 1 2 5 6 3 2 1 2 4 3 3 4 3 4 6 5 5 6 6 6 7 7
4 9 16 14 8 4 2 3 3 3 1 1 3 4 5 5 5 4 3 6 3 3 3 4 2 7 7 8 8 4 4 6 4 13 18 15 7 1 6 5 2 3 2 3 4 1 2 7 8 7 6 8 7 4 3 2 4 3 3 2 5 5 6 5 2 2 3 1 1 3 3 2 2 2 3 3 3 4 5 5 6 6 7 8 8 8 8 8
4 8 15 14 8 6 2 4 3 3 3 3 4 4 5 6 5 3 5 5 3 1 1 3 3 6 7 8 9 6 1 4 3 9 16 19 13 2 6 6 1 3 4 5 3 2 2 5 6 6 7 6 3 4 4 1 1 5 6 5 6 5 5 2 3 3 2 1 3 3 2 1 3 1 1 2 3 5 6 7 7 8 8 9 8 9 9 9
4 7 14 12 6 7 3 4 3 4 4 5 5 5 6 6 4 4 5 3 2 2 1 2 3 5 7 8 8 5 3 4 3 5 12 19 18 7 5 4 3 2 7 6 5 1 1 1 1 4 5 3 3 6 3 2 1 5 5 5 2 2 2 2 4 2 2 4 2 5 2 2 3 1 2 2 4 6 6 7 7 8 9 9 9 9 9 8
4 7 14 12 5 5 2 3 3 4 5 5 6 7 7 5 4 6 4 0 1 2 1 3 2 3 7 7 6 6 5 4 2 4 6 8 14 11 4 2 4 5 6 7 5 2 3 2 1 4 3 2 3 5 1 3 3 4 5 5 4 5 4 3 2 3 5 3 3 5 2 4 1 1 4 4 3 4 4 5 6 8 8 9 9 9 9 9
4 8 14 14 9 6 1 1 1 4 5 5 7 6 5 3 5 6 2 1 1 3 3 4 3 4 7 5 4 6 4 5 5 6 5 4 10 11 6 5 5 5 5 6 6 6 6 5 2 1 2 1 2 3 2 1 3 4 5 4 4 4 4 4 5 4 5 2 5 3 1 3 2 1 4 3 2 2 4 6 8 10 10 9 9 9 9 9
5 9 14 16 14 9 3 0 2 5 6 7 7 4 4 4 4 3 1 3 2 2 2 2 3 5 5 4 5 6 4 5 5 5 4 4 6 8 7 5 3 4 5 4 5 6 4 2 4 4 3 3 5 4 5 6 6 6 5 5 5 3 4 4 4 3 2 4 6 2 4 1 3 2 3 3 4 4 4 6 8 11 11 9 9 9 8 8
6 10 13 15 16 12 7 3 3 6 8 9 6 5 6 5 2 1 3 2 1 2 1 1 3 4 3 4 5 6 3 3 5 5 3 3 5 5 5 5 4 3 2 2 4 4 3 4 6 6 3 3 5 4 4 5 5 5 3 3 4 2 4 3 3 2 2 5 6 4 2 1 3 2 3 4 5 5 5 6 8 10 11 11 10 9 8 8
6 9 11 14 17 15 9 5 5 8 9 8 5 6 7 5 1 1 2 3 1 3 2 1 4 5 4 4 3 4 3 2 3 5 4 3 4 4 4 6 7 4 2 2 2 2 2 3 4 4 2 3 3 2 0 1 2 3 2 5 4 4 3 1 2 1 3 5 6 5 2 2 2 2 4 5 5 5 4 5 6 7 8 9 8 8 8 9
5 9 12 15 18 15 9 5 5 8 8 6 7 6 6 2 3 0 1 3 2 3 3 2 3 5 4 3 3 3 2 2 2 5 5 4 3 2 3 4 6 4 3 3 1 1 2 3 4 3 2 2 3 2 1 3 1 3 2 4 2 2 4 2 3 4 3 3 4 3 0 3 2 2 3 3 4 4 4 2 4 6 6 6 6 7 8 8
5 8 12 16 19 16 10 5 5 6 5 6 9 6 2 2 2 2 1 1 1 2 4 4 4 5 4 4 4 5 3 2 3 4 3 3 2 2 2 2 4 4 3 3 0 1 2 2 5 4 4 2 1 3 2 3 0 2 3 2 3 3 6 3 2 2 3 2 3 1 1 4 2 2 4 2 4 5 4 3 4 6 6 6 7 8 8 8
3 4 9 18 21 15 9 5 6 6 5 7 8 3 2 2 2 2 1 1 0 0 3 3 2 3 3 3 3 6 5 3 4 4 2 1 2 3 4 3 2 3 1 2 1 1 2 2 5 3 4 3 2 1 3 3 3 3 3 3 3 1 4 4 1 4 4 2 3 2 2 4 2 2 3 2 5 6 5 5 5 5 6 7 9 9 9 9
1 1 5 19 22 13 8 7 8 7 6 8 7 3 2 1 1 2 1 0 0 2 5 2 0 1 1 1 3 5 5 3 4 3 2 2 2 2 2 3 2 3 3 0 1 0 2 1 6 2 2 6 3 3 3 5 3 4 2 2 2 3 2 2 2 2 2 2 4 4 4 3 3 3 3 5 7 7 7 6 6 7 8 9 9 9 9 9
1 1 3 16 19 12 10 10 9 8 7 7 4 2 2 1 1 2 1 1 1 3 4 1 1 2 1 1 1 4 3 2 2 2 2 2 2 2 3 1 2 3 5 2 2 1 1 2 3 5 3 4 4 4 1 4 5 4 3 3 2 3 3 1 1 1 1 1 2 4 5 3 5 5 6 8 9 8 8 7 8 11 10 10 9 9 9 8
2 3 2 16 16 9 14 17 12 8 7 5 3 2 1 1 2 3 2 2 1 2 2 1 0 1 1 1 0 2 2 2 2 2 2 1 1 1 1 0 2 4 6 4 3 1 2 3 2 6 5 3 2 1 2 2 2 3 4 4 3 2 0 1 1 1 2 1 2 1 4 5 5 4 6 9 9 9 10 9 10 11 11 10 10 9 8 8
3 3 4 18 13 1 8 17 11 4 5 4 2 2 1 1 1 2 2 1 0 1 1 3 2 1 1 1 1 1 1 3 2 2 1 1 2 1 1 2 2 2 4 4 4 1 1 1 1 3 4 2 2 4 3 3 4 2 2 2 2 1 2 3 3 3 1 2 4 2 3 8 5 3 6 7 8 9 10 10 10 10 11 11 10 10 9 8
6 3 5 16 9 7 10 9 4 3 5 3 2 2 1 2 2 2 2 1 1 1 2 3 2 1 2 1 1 1 1 2 2 2 1 0 1 1 2 2 2 1 1 1 2 2 1 3 1 3 3 4 5 3 1 2 2 3 2 2 4 2 4 5 2 3 1 1 1 3 2 7 5 3 5 6 6 8 8 9 9 9 10 10 9 9 9 8
4 2 6 13 4 8 13 7 3 5 4 0 1 1 1 2 2 1 2 2 2 1 3 2 1 1 1 1 0 0 1 1 1 1 1 1 2 4 3 0 0 2 2 1 2 2 1 3 2 3 4 4 6 4 2 2 3 2 1 1 2 1 3 5 5 3 1 3 1 2 2 7 6 3 4 5 5 6 6 7 9 9 8 8 9 8 8 8
3 2 6 14 5 3 6 5 2 3 2 1 3 2 2 1 2 2 2 2 1 1 2 1 0 0 0 1 2 1 1 1 1 1 1 1 2 3 2 1 1 1 2 1 0 0 1 1 2 2 5 6 7 6 4 4 2 0 2 0 1 3 5 3 2 3 1 4 4 3 4 7 5 3 3 5 5 6 7 7 7 8 7 7 7 7 7 7
4 1 4 15 17 9 4 4 6 5 3 3 4 2 2 2 1 1 1 1 1 2 2 1 1 0 1 1 2 1 1 1 0 0 1 0 1 2 2 2 1 0 2 2 1 1 1 2 3 3 2 3 4 4 4 3 3 1 1 2 2 4 6 3 1 3 2 4 4 5 5 7 6 4 4 6 6 7 9 8 7 7 7 7 6 6 7 6
3 3 2 8 13 10 3 1 5 6 4 5 4 2 2 2 2 1 1 1 0 1 1 2 1 1 3 4 3 2 2 2 1 1 1 1 3 3 2 2 2 3 2 2 2 2 2 1 2 5 5 4 5 7 4 1 2 4 4 4 4 3 5 5 4 3 4 3 3 6 7 8 11 9 7 7 7 8 10 9 8 9 8 8 7 7 7 6
2 2 2 1 3 5 5 4 4 4 3 5 3 1 2 2 2 1 1 0 0 1 1 1 2 2 2 3 2 1 2 2 2 1 1 2 3 4 3 1 1 3 2 3 2 3 4 2 2 4 6 7 8 9 6 1 3 6 6 6 6 5 5 7 5 6 5 4 4 9 6 6 12 11 9 9 8 8 9 9 9 9 9 8 7 7 7 7
3 2 2 1 2 2 2 2 3 5 5 4 3 2 2 2 2 1 0 1 2 1 1 1 3 2 1 1 2 0 2 3 1 1 1 1 2 4 3 1 0 1 1 2 1 3 4 2 2 3 6 8 8 9 7 4 5 6 6 8 7 7 8 9 9 8 7 6 8 8 5 8 13 13 11 11 9 9 10 10 9 7 7 7 7 7 8 8
3 3 0 3 3 3 2 2 4 6 6 4 3 2 2 3 2 1 1 2 3 2 1 0 3 4 3 2 3 2 1 1 1 3 2 1 2 2 2 2 1 2 2 1 2 2 3 2 2 2 6 9 9 9 6 5 4 6 7 9 9 9 11 12 9 8 8 9 11 10 10 13 14 13 12 11 9 8 8 7 6 6 7 7 7 8 8 8
3 3 1 3 4 2 1 3 4 5 4 3 3 2 2 4 3 2 1 2 0 2 2 0 4 5 3 2 4 2 5 5 3 5 4 2 2 1 2 2 2 2 3 1 1 1 1 2 1 2 3 8 8 6 3 3 4 8 10 9 7 7 8 8 6 5 7 9 11 10 11 13 11 9 9 8 7 6 6 7 8 7 8 8 8 9 8 8
4 4 5 7 4 3 2 3 3 5 3 3 2 2 1 3 4 3 1 2 3 2 1 2 3 3 2 2 4 4 6 6 6 6 7 5 3 3 3 2 3 1 3 1 0 2 1 2 2 5 3 7 5 4 6 7 6 8 12 10 7 7 6 5 5 6 7 8 9 8 8 9 8 5 5 6 7 7 8 10 9 8 8 8 9 9 8 9
6 5 4 7 4 2 2 2 3 4 2 1 2 3 1 2 4 3 2 1 1 2 4 5 4 1 1 1 5 6 5 6 6 6 5 5 3 3 3 3 4 3 1 2 1 1 2 2 1 2 1 6 5 3 5 6 6 6 8 7 8 8 7 6 5 6 8 8 6 7 8 8 6 5 7 9 9 9 10 9 9 9 9 8 9 9 9 9
Wind_Direction
302 316 325 333 334 334 337 341 343 340 339 335 330 326 322 319 317 316 314 311 308 305 302 299 299 311 325 331 336 340 349 8 51 54 55 20 359 349 342 336 335 338 336 337 342 345 355 8 359 357 358 347 290 246 264 199 118 69 123 165 244 203 191 199 191 205 173 182 203 317 28 120 116 106 151 55 36 52 63 47 61 58 62 86 104 118 122 124
303 316 325 333 335 338 340 341 342 338 334 331 328 323 321 318 315 313 309 310 310 307 304 300 303 312 325 333 335 344 353 37 80 62 40 11 4 356 345 338 335 333 334 342 353 3 13 352 338 357 14 17 299 283 284 253 144 133 133 160 236 200 205 213 196 206 170 166 152 54 41 90 77 308 80 70 25 43 71 54 72 78 74 86 102 115 119 121
323 330 337 342 342 344 342 339 336 332 330 326 324 321 321 320 317 315 310 308 306 305 305 302 309 317 327 332 333 340 344 55 81 37 5 358 356 352 346 338 335 333 334 345 346 348 350 310 318 353 32 310 286 288 314 289 201 176 130 183 245 207 225 259 216 207 194 159 126 81 51 61 13 338 69 104 82 48 74 78 92 101 102 100 105 113 117 118
350 346 345 346 345 345 340 336 331 328 327 325 324 324 322 322 322 321 316 311 305 302 303 305 311 318 327 333 335 332 349 57 43 324 348 348 344 346 343 334 338 339 335 341 337 333 322 306 303 100 86 297 304 11 224 260 226 184 149 200 237 183 218 262 207 180 163 126 117 112 83 71 23 27 51 120 93 49 37 358 110 122 122 118 113 111 113 114
356 349 348 350 349 347 342 337 332 330 330 329 330 329 329 328 325 321 319 316 307 300 304 314 319 327 334 335 336 327 25 48 319 321 345 344 347 344 341 336 339 344 342 343 336 339 332 321 75 79 76 253 313 13 242 238 140 173 224 222 223 159 194 250 205 169 108 97 95 93 81 94 53 39 29 67 84 38 332 11 88 105 107 107 100 97 97 96
356 353 356 357 354 348 342 338 334 334 334 335 334 332 331 328 324 318 311 311 311 310 312 322 332 340 346 342 347 353 89 79 304 336 343 348 355 347 345 338 333 347 341 337 344 4 8 12 60 63 56 313 247 215 255 273 127 213 266 270 245 189 200 230 170 191 115 96 83 92 96 107 89 62 35 55 63 3 28 65 76 72 77 83 81 81 81 81
360 2 6 358 352 346 342 339 337 338 338 337 334 331 329 326 323 316 307 302 302 314 317 330 347 356 356 356 25 47 90 111 327 345 346 358 2 351 348 334 323 340 338 349 360 8 30 27 38 147 77 8 267 232 279 322 33 207 250 307 288 209 212 158 106 61 77 86 85 94 86 68 84 88 52 51 45 22 58 70 74 74 73 75 72 72 75 78
6 9 3 354 350 346 345 344 344 345 345 343 340 338 337 337 337 331 322 305 290 308 318 335 359 12 7 14 77 49 47 324 338 352 350 356 360 353 344 330 330 331 339 7 4 346 60 43 44 99 57 284 235 299 311 350 6 200 220 286 327 46 126 104 94 84 83 87 92 83 76 72 85 92 67 47 40 35 64 68 70 74 69 69 68 69 74 77
12 7 358 355 354 353 354 351 350 353 354 351 348 348 350 350 351 349 346 327 294 290 312 17 29 27 21 41 87 62 346 332 351 358 353 348 352 352 342 331 337 332 338 4 16 32 127 92 279 124 137 222 230 319 331 12 329 219 211 255 318 67 163 120 95 102 102 107 99 89 89 99 96 85 63 40 51 60 68 65 65 72 67 66 67 67 74 77
13 4 1 360 360 1 0 357 356 360 359 356 354 356 358 359 360 359 0 1 353 332 5 73 47 30 29 46 74 72 330 349 360 359 355 348 350 354 350 342 340 339 336 356 26 49 101 158 244 171 160 193 259 296 342 125 208 231 219 242 203 89 195 146 119 129 112 109 109 106 111 83 40 71 85 59 69 80 74 66 62 71 70 69 69 67 73 75
9 3 2 2 3 3 4 2 1 2 1 0 1 2 5 4 2 358 1 12 33 66 83 90 53 50 69 74 84 87 348 356 358 359 357 349 350 349 347 347 346 346 335 348 25 51 59 141 247 113 145 248 281 301 297 164 194 237 207 300 317 29 360 71 119 162 117 76 124 114 109 35 16 57 112 126 97 85 81 73 64 72 72 70 71 68 70 72
3 360 0 1 4 4 6 5 2 1 360 3 5 8 11 3 354 349 355 16 40 68 98 89 75 103 91 72 78 88 2 3 356 356 355 346 342 339 339 344 347 348 330 335 3 27 14 346 39 77 239 218 330 316 281 196 211 251 64 342 309 7 17 9 110 194 107 132 172 120 96 16 21 84 116 121 109 86 80 77 69 72 74 71 73 71 70 74
358 357 357 359 3 4 5 3 1 360 357 2 8 17 13 358 353 352 356 30 60 70 87 84 100 138 98 67 47 66 7 0 360 358 358 348 339 338 345 344 322 331 315 302 326 348 342 327 55 92 217 103 248 275 67 357 351 310 11 39 309 9 354 322 342 174 74 152 198 143 111 360 52 117 126 131 112 89 79 77 77 75 77 75 75 75 72 75
357 356 354 356 1 1 1 359 359 358 355 2 13 25 7 357 5 11 29 62 75 73 76 79 102 135 86 87 233 31 351 350 2 357 357 350 343 346 1 358 318 281 288 292 322 358 359 334 56 76 105 104 249 296 8 360 7 324 337 16 360 17 291 308 349 106 74 147 212 59 196 193 150 147 136 152 111 95 90 83 86 82 82 81 80 84 78 75
355 355 353 355 355 355 355 353 354 353 352 2 22 37 11 9 27 40 59 76 82 77 79 76 74 100 71 72 329 355 340 342 352 350 353 350 344 342 349 356 5 278 277 292 321 341 350 360 60 73 317 360 38 33 360 345 4 28 7 330 348 57 276 303 329 76 95 114 22 61 152 156 161 161 136 142 105 100 102 96 95 91 89 90 86 88 86 81
347 352 352 350 349 349 349 345 346 347 349 3 38 63 39 38 50 66 79 85 85 74 70 63 25 71 88 25 333 350 344 335 340 342 346 347 346 328 332 345 17 11 333 276 322 328 358 36 64 78 44 19 47 68 30 11 349 5 74 259 292 311 308 305 326 19 66 118 20 41 149 134 151 153 128 119 106 104 107 106 103 99 97 98 96 95 96 92
335 340 341 343 343 342 342 339 339 340 344 2 62 88 58 51 54 89 106 98 87 70 64 49 9 83 84 2 347 344 330 328 338 344 344 350 356 332 328 336 13 3 2 33 359 5 22 39 35 20 49 38 45 73 48 14 322 331 28 21 283 257 305 306 283 4 32 71 43 45 98 117 129 131 117 109 111 108 111 118 115 110 110 104 103 100 97 98
323 324 328 332 335 336 337 336 334 334 337 358 72 125 76 56 56 70 93 118 88 47 51 28 22 92 4 351 353 321 320 332 348 350 349 358 8 354 349 333 351 355 15 39 10 12 14 11 39 42 24 18 22 58 68 272 243 285 313 323 309 316 315 283 264 325 36 56 66 70 87 105 111 113 106 103 111 111 116 123 120 119 116 111 109 104 102 101
319 320 321 324 331 332 333 334 332 329 327 349 70 163 145 54 52 55 53 56 54 49 56 347 19 111 288 318 326 325 329 343 360 355 356 1 360 20 41 29 7 21 39 33 351 2 27 24 40 36 1 346 345 45 140 222 194 230 266 231 260 304 282 265 277 324 79 71 42 68 104 116 114 113 111 111 107 110 118 119 118 120 117 119 116 114 116 111
322 323 320 323 328 329 334 340 336 326 328 342 137 153 145 53 38 32 34 45 69 92 101 273 14 107 319 316 327 340 344 347 3 2 2 360 349 30 34 15 28 43 37 351 308 360 73 64 38 344 292 289 304 303 245 216 194 246 246 230 256 232 275 287 28 315 94 83 17 58 101 106 114 122 121 119 113 116 125 124 125 131 128 133 130 127 128 125
325 323 319 322 326 332 340 347 345 339 344 342 152 138 153 142 98 159 355 37 49 65 76 212 79 62 324 288 326 352 2 334 355 4 3 1 5 28 2 12 40 27 352 308 292 8 62 64 4 295 257 258 338 338 340 89 59 16 119 251 305 204 254 294 116 318 28 84 51 82 93 76 81 109 118 124 129 138 146 140 141 146 140 142 138 138 141 135
332 325 324 326 329 339 342 11 13 7 16 53 124 111 133 147 125 160 150 84 14 23 45 9 32 20 323 316 349 0 42 359 354 358 360 1 18 33 359 38 52 12 334 357 30 12 44 54 315 293 260 110 40 31 60 62 59 41 41 85 352 284 276 307 36 27 23 86 142 115 94 71 39 80 99 133 145 152 157 151 154 155 150 157 157 154 155 150
346 341 338 332 336 343 339 72 36 44 75 95 111 104 115 118 128 155 116 95 74 1 24 19 33 1 344 15 2 4 50 29 355 345 356 1 14 40 60 51 47 15 354 30 80 62 53 330 306 315 30 82 43 16 42 42 37 37 16 64 332 315 28 319 340 35 31 63 137 125 90 73 27 62 62 19 117 118 121 135 147 157 160 169 168 164 164 165
7 2 352 340 344 348 155 107 51 75 82 91 101 106 126 121 133 153 96 83 92 338 344 333 135 34 350 347 351 3 75 45 7 340 356 8 360 12 63 71 56 34 4 60 92 91 92 293 325 31 45 78 71 21 34 30 2 340 294 116 360 313 317 245 290 55 49 38 111 118 79 17 81 92 88 25 68 98 107 124 136 160 160 155 158 170 178 177
27 16 6 357 356 360 158 121 52 86 82 82 98 110 128 127 150 154 103 69 33 319 326 340 71 16 337 341 349 351 119 37 37 350 355 10 352 348 37 47 73 37 341 87 83 83 67 312 6 53 38 54 72 39 30 34 3 331 266 155 198 291 276 278 320 13 61 7 213 149 88 281 309 136 187 129 90 126 146 157 165 172 163 158 169 182 188 189
22 13 6 2 6 19 166 136 55 96 86 67 98 128 140 140 162 158 111 64 19 310 346 354 7 360 341 345 346 18 81 8 9 17 8 8 345 150 51 347 46 34 282 104 74 81 27 349 40 73 53 45 53 44 6 77 52 343 289 236 281 280 284 284 311 322 149 261 229 183 195 264 304 270 223 180 150 173 193 195 188 183 179 180 186 189 190 193
342 360 2 0 11 28 174 154 103 135 144 110 120 137 152 144 142 148 82 46 1 291 351 330 327 7 349 342 349 70 73 306 344 17 7 9 354 121 65 9 9 4 306 89 52 34 8 2 27 49 47 41 36 5 315 95 72 302 261 321 315 308 299 282 233 200 210 249 265 191 210 287 288 254 218 173 166 201 218 216 205 196 193 192 195 197 195 196
329 357 3 1 16 39 99 136 124 144 143 156 151 141 151 143 139 121 79 66 343 328 42 303 330 5 345 350 15 73 98 305 36 353 349 18 18 38 64 33 74 346 352 85 105 272 23 18 16 36 40 35 14 320 297 120 87 266 261 297 303 293 291 272 146 180 220 38 356 281 238 293 281 278 94 157 195 235 226 215 213 203 200 201 200 202 202 201
344 6 8 7 24 38 80 125 106 141 154 161 153 144 147 141 128 71 71 105 330 4 173 309 352 345 343 4 16 36 14 4 81 325 349 23 19 27 80 34 99 72 14 68 118 230 40 34 164 92 48 2 304 307 296 139 259 281 291 309 331 40 19 65 111 129 49 55 339 285 225 184 269 240 150 192 222 242 228 210 212 206 204 205 204 206 206 206
9 17 13 17 33 25 74 125 85 142 165 159 149 146 141 120 76 59 50 137 347 331 281 14 2 334 8 20 356 2 30 7 350 360 10 20 10 22 76 31 72 84 20 36 63 360 317 308 170 103 41 283 276 311 288 161 266 320 4 349 8 36 33 43 66 88 58 27 274 273 211 177 259 238 183 187 207 223 212 204 207 208 210 208 207 207 204 206
30 23 17 24 33 23 33 152 120 163 167 149 143 136 121 67 58 87 87 281 353 334 358 11 340 1 26 39 2 351 14 351 347 27 22 3 14 22 28 16 34 47 17 19 18 350 352 6 354 291 296 313 17 353 358 9 331 23 41 15 12 2 4 17 359 39 58 312 256 290 354 183 213 257 193 197 244 223 209 207 200 204 211 208 207 207 204 206
44 27 23 29 35 34 31 299 182 163 155 144 132 99 87 47 32 89 294 327 356 331 353 328 314 360 6 25 18 345 341 353 4 52 42 18 36 38 39 29 359 11 15 9 358 350 3 360 319 308 306 15 38 16 355 357 7 28 33 40 50 9 3 15 342 9 56 260 254 335 6 233 228 256 198 211 260 255 240 221 201 201 205 206 208 208 207 206
53 30 26 31 34 35 38 50 139 147 150 143 113 52 77 79 41 253 293 335 14 316 336 292 308 346 4 27 7 333 356 8 354 31 48 60 57 39 36 26 13 32 29 4 11 3 344 314 340 1 345 17 63 62 357 340 355 10 31 71 77 75 33 353 302 346 320 270 280 324 10 251 288 296 205 218 249 255 258 238 212 201 199 202 205 204 206 208
62 35 28 28 27 28 35 57 118 140 145 133 88 47 68 80 221 258 317 285 283 334 356 340 326 347 31 51 349 327 20 3 356 39 22 26 43 14 3 6 8 36 98 53 39 58 34 323 346 13 324 357 50 98 110 251 315 324 155 113 98 130 111 256 227 238 282 281 298 330 28 199 266 272 214 232 256 265 277 245 208 202 204 201 201 203 207 211
77 39 30 23 19 19 28 62 122 141 138 103 66 62 80 114 234 180 304 268 289 332 323 340 22 29 13 351 336 356 26 321 27 65 31 29 54 3 348 352 354 13 74 61 349 100 99 257 275 285 281 36 21 294 119 110 330 303 122 84 37 173 146 153 199 207 240 294 296 320 314 209 210 246 242 264 283 286 309 273 188 198 209 195 200 210 210 214
95 43 33 21 12 13 24 67 127 143 135 88 65 61 111 182 210 167 203 278 343 307 326 353 34 44 350 317 340 353 351 344 31 56 40 52 75 8 341 315 347 14 71 110 51 11 75 276 293 327 343 62 159 280 21 84 22 338 40 19 283 199 134 117 291 301 52 34 287 291 282 282 329 302 264 298 301 281 293 278 208 204 206 199 210 216 214 218
112 57 36 17 10 13 27 75 128 129 105 81 79 92 178 193 186 181 206 341 337 136 59 34 10 24 349 319 326 333 343 2 21 40 44 40 45 18 347 305 339 25 35 135 152 192 125 295 303 351 353 305 203 217 351 26 100 88 35 323 293 48 86 95 15 347 32 26 284 305 280 285 327 308 277 283 271 259 252 250 241 231 218 215 222 221 219 222
134 127 41 13 10 20 41 84 118 113 86 70 76 114 137 113 185 200 196 68 266 57 70 87 309 43 69 341 308 320 349 8 356 26 63 25 9 67 30 312 315 27 344 40 100 212 120 341 298 292 312 305 337 68 340 335 39 97 93 328 49 70 7 28 59 353 355 317 294 310 304 265 215 222 233 228 233 237 237 236 237 237 226 222 228 228 228 229
49 109 31 2 9 39 65 89 99 76 71 75 82 126 140 111 246 236 185 138 112 74 71 112 281 34 59 103 276 308 350 24 352 27 80 39 4 87 83 311 292 351 344 31 110 284 71 96 287 288 293 313 358 49 13 320 343 25 34 6 39 124 175 255 27 161 165 269 279 314 322 280 226 211 196 211 221 219 222 226 227 230 226 224 227 227 228 228
30 96 16 351 3 55 71 71 69 47 62 99 144 137 103 166 267 277 220 182 147 96 90 185 118 33 345 21 10 301 360 26 7 42 66 34 14 36 60 29 289 324 337 15 74 349 12 95 248 296 336 8 360 341 178 205 291 354 27 21 3 358 91 59 339 135 129 168 210 297 307 271 248 203 186 208 219 212 212 218 225 229 229 228 229 228 228 227
48 100 337 348 350 197 70 57 53 41 74 87 115 104 66 160 174 321 278 212 198 140 134 144 131 113 151 45 357 278 360 14 24 70 54 4 58 19 241 160 182 301 340 16 36 23 19 101 212 297 339 353 254 241 213 207 205 168 104 126 145 42 60 71 330 310 76 159 180 174 270 270 261 195 188 205 212 213 215 216 224 232 231 231 232 228 228 228
54 102 324 354 27 115 79 55 19 42 88 73 76 112 76 107 106 354 336 20 43 40 55 97 115 105 150 149 311 257 81 26 23 68 79 242 121 204 224 151 158 198 73 33 320 289 125 102 94 282 275 256 259 261 180 196 176 134 116 134 134 114 102 119 213 272 308 299 198 134 242 269 265 203 199 214 215 220 219 214 225 237 234 234 237 233 229 228
69 131 351 3 54 109 73 61 329 28 70 266 27 69 32 86 111 21 15 21 21 37 30 38 111 73 136 190 140 101 106 87 77 94 109 239 220 222 227 46 100 143 99 48 292 299 17 76 54 299 292 298 306 327 44 63 66 73 339 84 115 119 121 145 179 186 212 271 221 107 262 268 274 246 219 235 245 247 239 222 225 237 244 240 235 232 225 223
107 160 12 18 24 157 85 97 139 72 95 106 60 35 4 70 95 52 32 360 360 93 71 27 223 75 267 150 111 166 164 104 100 115 124 172 216 245 252 292 345 106 131 175 191 299 296 95 85 9 344 344 345 353 350 343 10 182 251 234 114 96 95 115 148 108 224 243 171 153 244 255 273 307 283 268 268 262 254 239 228 234 244 240 231 229 226 224
72 88 337 18 36 63 102 146 139 131 146 103 79 47 21 45 43 79 120 31 13 151 125 352 295 125 346 51 55 360 27 80 257 360 56 180 255 304 287 218 200 219 215 196 117 99 187 161 115 99 48 333 316 301 285 288 306 299 231 226 208 130 123 152 120 96 237 247 167 173 233 260 278 300 291 271 262 259 259 254 248 245 242 239 233 230 229 228
72 54 328 359 25 49 69 86 95 110 144 121 84 29 71 66 323 274 127 84 19 140 93 358 341 52 26 40 44 342 338 18 25 81 73 269 264 289 288 182 186 225 208 136 100 85 107 183 167 148 170 203 229 245 242 207 268 274 262 246 228 172 134 124 115 161 200 194 206 227 238 270 282 282 278 267 251 250 258 256 255 254 247 242 237 234 237 237
99 89 98 19 8 33 32 17 52 86 139 131 108 69 96 73 323 328 76 114 78 91 85 38 46 65 38 47 57 301 299 351 16 73 136 239 261 289 296 169 200 250 184 133 147 102 84 310 252 173 208 224 227 250 265 254 232 239 249 249 225 191 149 140 176 214 175 130 260 251 218 244 275 279 278 276 265 256 260 258 252 251 246 241 236 238 246 248
80 135 174 123 92 86 50 35 81 81 68 84 103 111 90 58 39 77 267 343 12 39 117 39 11 14 262 169 124 210 320 359 350 269 215 244 288 332 336 276 259 319 93 93 14 112 110 279 243 185 258 260 250 260 258 232 230 229 234 243 228 192 177 189 213 212 167 177 248 253 224 245 272 282 281 280 276 267 265 261 256 255 247 237 235 242 246 248
85 110 352 33 90 148 146 99 102 83 60 64 79 77 108 112 117 219 240 23 1 342 81 91 309 312 289 210 131 135 243 105 296 266 213 197 281 343 353 277 294 13 75 76 341 115 129 270 243 200 291 284 273 270 241 202 250 272 258 248 231 203 197 209 225 212 195 223 249 257 263 265 269 277 279 278 272 266 270 275 269 254 242 236 240 246 245 246
136 141 149 64 73 98 71 52 82 81 49 46 69 71 123 140 170 234 206 108 70 315 20 107 269 285 277 185 130 162 225 187 202 244 186 151 286 236 196 228 228 349 10 74 340 357 80 290 267 92 332 292 283 293 273 230 267 281 277 265 238 220 217 225 237 223 218 245 257 262 271 271 267 264 267 273 280 284 283 276 263 248 243 244 246 246 247 249
104 121 135 113 75 11 25 39 70 89 45 10 103 147 147 177 188 177 164 189 183 208 201 185 237 286 355 129 160 233 240 192 196 219 184 167 211 201 200 212 176 326 343 55 322 354 48 298 352 56 1 279 279 323 308 297 298 283 277 268 235 215 216 219 221 209 206 231 258 272 273 268 266 264 268 277 283 283 273 266 263 257 249 242 241 244 248 250
97 89 108 105 81 3 54 56 45 78 81 331 152 161 180 204 192 145 95 257 223 204 196 178 176 158 60 186 223 238 229 197 205 220 191 175 191 196 219 216 172 172 197 162 232 326 122 132 360 58 274 268 281 317 313 325 335 295 264 235 209 210 223 241 249 232 213 209 234 251 247 255 278 297 294 289 283 276 270 265 263 260 249 239 240 245 249 250